Powrót do katalogu

CZ-6A DEB

AktywnyPO
NORAD 55895·DEBRIS·🇨🇳 China

Wystrzelony Nov 11, 2022 z Taiyuan Satellite Launch Center

Loading…

Następne Przeloty (najbliższe 24 godziny)

TLE

ŚwieżeSource: Space-Track

Epoka: Sep 14, 2026, 10:25 UTC

1 55895U 22151AAT 26257.43428745  .00010276  00000-0  13348-2 0  9999
2 55895  98.5831 319.6729 0086152  25.9583 334.5909 14.78325274197855

Śledź CZ-6A DEB w czasie rzeczywistym z AllMySat

Download on the App Store